Flight Track Log - Related Links

Times and Time Zones

All times are in EDT time to prevent confusion due to time zone crossing. See the N449ND flight status page for this flight to view local times or setup timezone preferences in your user account.

Time Position Orientation Groundspeed Altitude Reporting Facility
EDT Latitude Longitude Course Direction KTS MPH feet Rate Location/Type
Fri 01:39:38 AM 28.9667 -80.9333 139° Southeast 94 108 4,600  Level Orlando TRACON
Fri 01:40:38 AM 28.9500 -80.9167 139° Southeast 92 106 4,600 -50 Level Orlando TRACON
Fri 01:41:38 AM 28.9333 -80.9000 139° Southeast 91 105 4,500 -50 Descending Orlando TRACON
Fri 01:42:38 AM 28.9000 -80.9000 180° South 93 107 4,500  Level Orlando TRACON
Fri 01:43:38 AM 28.8833 -80.8833 139° Southeast 89 102 4,500  Level Orlando TRACON
Fri 01:44:32 AM 28.8500 -80.8833 180° South 91 105 4,500  Level Orlando TRACON
Fri 01:45:32 AM 28.8333 -80.8667 139° Southeast 90 104 4,500  Level Orlando TRACON
Fri 01:46:32 AM 28.8167 -80.8667 180° South 92 106 4,500  Level Orlando TRACON
Fri 01:47:32 AM 28.7833 -80.8500 156° South 91 105 4,500 50 Level Orlando TRACON
Fri 01:48:32 AM 28.7667 -80.8500 180° South 92 106 4,600  Climbing Orlando TRACON
Fri 01:49:32 AM 28.7333 -80.8333 156° South 93 107 4,500 -50 Descending Orlando TRACON
Fri 01:50:32 AM 28.7167 -80.8333 180° South 93 107 4,500  Level Orlando TRACON
Fri 01:51:32 AM 28.6833 -80.8167 156° South 91 105 4,500  Level Orlando TRACON
Fri 01:52:33 AM 28.6667 -80.8167 180° South 92 106 4,500 -50 Level Orlando TRACON
Fri 01:53:33 AM 28.6333 -80.8167 180° South 91 105 4,400  Descending Orlando TRACON
Fri 01:54:33 AM 28.6167 -80.8167 180° South 87 100 4,500 50 Climbing Orlando TRACON
Fri 01:55:33 AM 28.5833 -80.8000 156° South 90 104 4,500  Level Orlando TRACON
Fri 01:56:33 AM 28.5667 -80.8000 180° South 87 100 4,500  Level Orlando TRACON
Fri 01:57:33 AM 28.5333 -80.7833 156° South 89 102 4,500  Level Orlando TRACON
Fri 01:58:33 AM 28.5167 -80.7833 180° South 88 101 4,500  Level Orlando TRACON
Fri 01:59:33 AM 28.5000 -80.7667 139° Southeast 87 100 4,500  Level Orlando TRACON
Fri 02:00:33 AM 28.4667 -80.7667 180° South 89 102 4,500  Level Orlando TRACON
Fri 02:01:33 AM 28.4500 -80.7500 139° Southeast 88 101 4,500  Level Orlando TRACON
Fri 02:02:33 AM 28.4167 -80.7500 180° South 86 99 4,500  Level Orlando TRACON
Fri 02:03:33 AM 28.4000 -80.7500 180° South 88 101 4,500  Level Orlando TRACON
Fri 02:04:33 AM 28.3833 -80.7333 139° Southeast 87 100 4,500  Level Orlando TRACON
Fri 02:05:33 AM 28.3500 -80.7333 180° South 89 102 4,500  Level Orlando TRACON
Fri 02:06:33 AM 28.3333 -80.7167 139° Southeast 89 102 4,500  Level Orlando TRACON
Fri 02:07:33 AM 28.3000 -80.7167 180° South 87 100 4,500  Level Orlando TRACON
Fri 02:08:33 AM 28.2833 -80.7000 139° Southeast 89 102 4,500  Level Orlando TRACON
Fri 02:09:33 AM 28.2667 -80.7000 180° South 89 102 4,500  Level Orlando TRACON
Fri 02:10:33 AM 28.2333 -80.6833 156° South 85 98 4,500  Level Orlando TRACON
Fri 02:11:33 AM 28.2167 -80.6833 180° South 88 101 4,500  Level Orlando TRACON
Fri 02:12:33 AM 28.2000 -80.6667 139° Southeast 88 101 4,500  Level Orlando TRACON
Fri 02:13:33 AM 28.1667 -80.6500 156° South 87 100 4,500  Level Orlando TRACON
Fri 02:14:33 AM 28.1500 -80.6333 139° Southeast 86 99 4,500  Level Orlando TRACON
Fri 02:15:33 AM 28.1167 -80.6333 180° South 85 98 4,500 -108 Level Orlando TRACON
Fri 02:17:19 AM 28.0864 -80.6222 162° South 79 91 4,200 -251 Descending Miami Center
Fri 02:18:20 AM 28.0678 -80.6169 166° South 84 97 3,800 -450 Descending Miami Center
Fri 02:19:19 AM 28.0431 -80.6067 160° South 89 102 3,300 -151 Descending Miami Center
Fri 02:20:19 AM 28.0267 -80.5967 152° Southeast 83 96 3,500 98 Climbing Miami Center
Fri 02:21:22 AM 28.0061 -80.5819 148° Southeast 71 82 3,500 50 Level Miami Center
Fri 02:22:20 AM 27.9878 -80.5694 149° Southeast 71 82 3,600 51 Climbing Miami Center
Fri 02:23:20 AM 27.9692 -80.5594 155° Southeast 71 82 3,600 -198 Level Miami Center
Fri 02:24:21 AM 27.9486 -80.5447 148° Southeast 77 89 3,200 -298 Descending Miami Center
Fri 02:25:21 AM 27.9300 -80.5347 155° Southeast 77 89 3,000 -99 Descending Miami Center
Fri 02:26:22 AM 27.9075 -80.5200 150° Southeast 82 94 3,000  Level Miami Center
Fri 02:27:19 AM 27.8869 -80.5122 162° South 82 94 3,000  Level Miami Center
Fri 02:28:21 AM 27.8683 -80.4975 145° Southeast 82 94 3,000 -50 Level Miami Center
Fri 02:29:19 AM 27.8497 -80.4922 166° South 82 94 2,900 -51 Descending Miami Center
Fri 02:30:19 AM 27.8269 -80.4844 163° South 90 104 2,900  Level Miami Center
Fri 02:31:19 AM 27.8022 -80.4719 156° South 90 104 2,900 -200 Level Miami Center
Fri 02:32:19 AM 27.7817 -80.4594 152° Southeast 90 104 2,500 -295 Descending Miami Center
Fri 02:33:21 AM 27.7611 -80.4519 162° South 90 104 2,300 -50 Descending Miami Center
Fri 02:34:19 AM 27.7425 -80.4467 166° South 84 97 2,400 50 Climbing Miami Center
Fri 02:35:21 AM 27.7217 -80.4389 162° South 84 97 2,400 50 Level Miami Center
Fri 02:36:19 AM 27.7008 -80.4336 167° South 79 91 2,500  Climbing Miami Center
Fri 02:37:19 AM 27.6800 -80.4400 195° South 79 91 2,400  Descending Miami Center
Fri 02:38:20 AM 27.6567 -80.4486 198° South 89 102 2,500 98 Climbing Miami Center

Login

Don't have an account? Register now (free) for customized features, flight alerts, and more!